Theta_e
300 294 289 291 290 290 290 288 287 290 294 293 291 291 294 297 296 295 296 297 298 300 305 304 304 304 303 330 334 335 336 337 342 340 337 335 335 332 333 334 335 336 338 337
295 292 297 298 295 293 291 288 288 292 295 292 291 291 294 296 296 296 298 298 299 300 302 305 305 303 304 327 334 334 337 339 341 342 337 335 334 331 332 332 332 334 335 336
292 295 301 298 296 293 290 288 288 289 294 294 291 289 292 297 297 299 299 299 300 301 301 304 304 303 309 328 334 337 335 339 340 337 335 332 332 333 330 329 329 331 334 335
293 298 296 296 295 295 289 294 293 292 291 284 291 281 289 293 295 296 299 298 300 302 304 305 304 303 314 327 335 337 334 337 335 334 332 334 330 330 329 329 331 331 332 332
292 293 293 293 295 298 293 298 294 294 292 288 290 283 288 291 293 294 298 300 299 308 315 316 309 326 330 334 333 331 330 332 333 333 334 332 328 328 327 329 329 328 328 330
295 299 297 296 299 300 300 298 296 294 290 283 288 286 284 288 293 295 298 299 310 313 314 322 330 335 334 339 339 335 333 333 334 334 331 330 327 326 324 324 323 323 323 326
295 295 297 301 295 298 298 292 285 283 282 281 289 285 287 293 297 298 300 304 308 310 318 321 323 326 333 334 336 337 333 333 330 329 328 327 325 324 323 321 322 323 323 323
288 285 295 300 297 293 295 294 284 279 277 282 288 283 287 300 304 303 304 306 309 317 319 322 324 326 327 333 336 336 334 332 330 328 326 325 323 324 325 324 324 324 323 324
290 289 300 300 301 300 292 291 294 285 291 283 285 289 299 304 303 305 308 310 312 316 318 319 320 321 323 325 325 328 333 329 328 328 326 326 326 325 324 325 325 325 325 330
295 289 297 300 300 300 297 297 287 289 281 280 285 290 291 297 299 302 304 305 311 316 314 314 317 319 320 320 321 322 323 325 329 330 330 328 326 328 329 328 328 328 326 326
299 293 293 298 294 292 292 292 293 289 285 280 282 285 299 298 300 300 303 305 306 312 312 313 314 316 316 317 318 318 318 319 319 320 320 321 323 324 324 322 322 320 318 319
299 294 288 291 298 301 298 292 292 283 283 286 286 288 303 301 302 304 304 308 308 308 307 308 310 310 309 310 313 313 314 313 313 314 315 314 315 316 316 317 319 321 319 321
300 291 285 288 294 298 295 295 293 290 290 286 283 286 303 303 302 304 304 306 309 309 307 306 306 306 306 307 307 306 307 308 308 307 307 307 307 308 309 309 313 312 311 311
303 292 289 284 289 293 292 296 294 292 283 287 287 295 298 303 303 303 305 306 308 308 307 305 303 304 304 305 304 304 304 304 304 304 303 302 302 303 304 305 306 307 308 307
300 290 292 294 297 296 297 296 297 291 292 288 292 295 298 302 305 306 307 309 310 306 305 304 302 302 304 305 304 304 303 304 303 303 302 301 301 301 302 303 303 304 304 304
299 291 293 291 295 296 294 297 298 297 296 296 298 296 303 305 306 306 307 308 306 305 304 303 304 303 303 304 305 305 304 303 303 302 301 301 301 301 300 300 300 301 300 301
294 291 291 287 293 293 288 293 296 298 300 298 293 298 302 302 303 304 305 308 306 306 305 304 304 303 302 303 304 303 304 305 303 302 302 301 301 300 299 300 299 298 297 297
294 292 289 287 289 281 293 299 301 299 300 301 301 302 303 302 303 304 307 306 306 306 305 304 301 301 302 303 302 303 304 303 302 301 301 301 300 299 298 297 296 295 294 294
297 293 286 285 284 291 294 298 298 297 294 299 300 298 299 300 301 298 303 304 302 302 302 301 300 300 300 301 301 300 299 299 299 299 298 299 298 296 295 293 292 291 291 291
296 296 288 285 283 281 293 299 303 300 289 300 300 298 299 300 293 295 299 301 300 301 300 299 297 296 295 295 296 296 295 295 295 295 295 295 295 293 291 289 289 289 288 290
288 287 285 284 284 290 299 302 303 287 290 299 300 300 300 298 298 297 299 297 297 297 295 295 294 293 293 294 294 292 292 292 294 294 293 292 290 290 290 288 287 287 287 287
285 283 282 285 282 284 300 300 292 295 296 300 300 300 299 299 298 296 294 292 293 293 293 292 292 291 291 292 291 289 288 290 291 291 290 289 288 289 290 286 285 285 285 285
285 287 285 287 286 296 299 296 297 298 297 299 295 296 296 293 291 292 291 291 291 291 290 290 289 289 289 289 289 287 287 289 289 287 286 286 286 286 286 284 283 284 284 286
293 295 291 292 297 295 295 294 295 295 294 295 294 293 293 290 290 289 289 288 288 289 288 288 287 287 287 287 288 287 287 288 286 284 283 283 283 284 283 284 284 286 288 289
291 294 294 294 297 295 292 291 293 293 293 292 292 292 291 290 289 288 287 287 287 286 286 286 286 285 286 286 286 286 286 285 282 282 282 284 285 286 287 286 289 289 291 291
292 291 290 292 297 293 290 291 294 292 291 291 289 288 289 289 287 287 285 285 285 284 284 284 283 284 284 284 285 285 285 283 282 283 285 286 287 288 288 288 289 292 291 292
Wind_Speed
7 7 14 8 8 4 7 6 7 2 7 9 9 7 9 9 7 9 10 10 11 13 15 8 8 4 8 7 7 8 10 11 13 9 6 4 6 2 2 3 5 6 6 7
4 19 10 8 11 14 14 14 17 3 3 3 5 10 10 9 10 10 14 13 13 8 7 11 11 3 8 11 9 7 10 13 12 11 5 4 4 2 3 2 5 6 9 9
13 6 15 12 13 13 13 18 10 4 4 6 4 10 7 12 9 16 11 12 9 12 10 11 11 9 9 11 13 13 13 14 10 6 9 6 6 4 2 1 2 5 5 3
12 13 14 15 19 11 15 6 7 4 2 5 3 7 7 8 13 9 17 8 10 8 8 6 7 5 8 8 10 11 11 11 8 8 5 13 6 7 3 2 3 2 4 2
9 11 17 20 13 14 9 4 5 5 6 4 7 2 10 3 8 7 8 9 4 4 5 7 6 7 7 7 6 5 7 8 10 10 10 8 5 2 2 3 3 3 3 2
10 6 13 23 15 14 11 11 4 6 1 3 16 10 7 4 7 1 2 4 7 5 5 5 6 10 11 10 10 9 10 9 9 12 9 10 9 7 4 4 3 3 3 5
4 11 5 8 13 13 11 5 1 3 5 13 4 6 10 5 5 3 4 8 6 6 8 7 9 7 10 9 8 7 5 3 0 1 5 3 4 4 4 2 1 3 3 4
10 6 15 8 9 6 12 10 5 6 5 11 3 8 4 7 9 3 6 9 6 7 9 12 12 11 10 9 8 7 6 3 3 4 4 5 5 2 2 3 2 4 4 3
5 7 2 8 12 14 5 19 15 1 2 2 3 3 2 13 10 10 15 13 5 7 10 12 13 12 12 11 9 7 7 4 3 3 5 4 4 3 4 6 4 4 3 3
7 2 4 4 5 11 15 8 5 4 4 2 4 2 0 6 8 7 14 5 8 7 9 11 12 13 12 12 11 13 12 11 9 7 6 6 6 5 5 4 3 1 1 2
4 2 2 3 4 10 7 7 3 5 5 6 3 1 2 1 5 6 7 7 1 10 9 10 12 12 12 12 12 13 13 13 12 9 7 8 6 6 6 6 5 5 4 6
12 3 5 11 2 4 10 9 15 6 5 3 5 2 1 3 6 10 8 6 3 10 9 9 12 12 12 12 12 12 12 13 10 9 10 8 9 8 7 6 7 6 6 5
7 3 4 2 2 7 5 5 4 4 3 7 7 4 5 4 12 10 6 6 5 12 12 11 12 12 12 12 12 12 9 11 8 9 9 8 8 8 7 7 7 8 7 7
4 5 4 7 3 6 9 9 6 7 4 5 6 9 6 6 11 7 7 5 7 7 11 11 11 12 10 11 11 11 9 8 8 9 9 8 8 7 7 7 8 7 6 7
1 7 6 4 2 1 4 8 7 5 7 7 9 11 15 17 18 6 4 4 10 8 9 12 12 10 10 9 10 9 8 9 8 10 10 8 7 6 7 7 7 6 8 7
2 5 7 6 2 5 4 2 5 2 7 7 11 5 7 9 12 14 6 6 11 12 10 10 11 9 7 8 8 6 7 7 8 8 7 6 7 7 7 7 7 7 8 8
2 4 7 6 8 5 8 11 6 4 1 12 6 8 15 16 16 17 14 9 12 9 8 6 8 7 7 6 7 6 6 6 7 7 6 6 6 7 6 6 6 6 7 6
3 3 2 6 9 5 3 7 8 6 5 8 11 16 13 13 10 9 14 17 17 15 12 9 6 5 4 4 5 6 6 6 5 6 6 6 6 6 5 6 6 5 4 5
4 2 4 3 2 7 11 2 5 16 3 4 16 14 15 16 16 7 8 9 8 7 6 6 6 3 4 6 6 7 7 7 8 8 9 8 6 5 5 5 4 2 2 3
4 6 4 2 3 3 3 6 8 6 2 5 18 18 20 15 8 2 4 9 7 8 5 7 8 8 9 7 7 11 9 9 9 7 6 5 4 4 4 4 4 2 2 4
3 3 5 3 2 4 3 4 1 5 5 1 15 18 16 10 9 7 6 8 7 7 10 10 10 9 6 7 8 9 6 7 4 3 3 3 4 5 3 4 3 4 5 5
4 4 3 1 4 1 7 3 3 5 5 12 10 11 13 15 11 8 9 8 9 11 9 8 9 8 6 6 7 6 7 4 4 4 5 5 5 6 5 5 5 5 5 5
4 3 5 3 2 5 7 13 10 11 14 15 13 11 15 14 10 11 9 9 8 7 7 5 7 7 6 5 5 6 3 5 6 6 6 5 5 5 4 5 5 4 4 4
3 2 5 3 7 8 11 14 15 14 14 12 12 12 12 13 10 10 8 7 8 6 6 5 6 6 6 5 6 5 5 5 5 5 6 5 5 6 5 4 3 3 3 4
0 4 4 8 9 15 12 11 13 15 15 17 14 13 13 14 9 8 6 7 6 6 5 5 5 5 4 4 2 2 3 4 4 5 5 5 5 6 6 4 4 4 5 4
2 6 5 3 4 9 4 5 10 15 12 11 15 12 10 9 9 7 6 4 4 4 2 4 4 4 2 2 2 3 3 3 3 5 4 4 4 4 4 4 5 6 5 8
Wind_Direction
189 191 216 195 209 250 296 277 247 192 248 195 239 256 252 256 248 244 246 251 258 257 264 276 267 224 156 168 162 165 152 162 152 150 154 165 183 164 122 142 142 158 164 168
199 228 201 209 198 213 239 261 262 291 260 213 278 270 259 247 247 222 237 238 241 250 272 274 269 209 161 169 169 151 166 164 175 164 157 135 131 97 98 135 147 183 187 189
210 195 195 208 221 213 218 223 239 216 315 280 291 290 287 270 242 243 238 229 242 237 241 251 251 234 142 163 171 171 170 170 167 154 117 103 90 73 99 146 204 221 216 210
230 219 245 217 219 208 235 204 223 226 251 235 128 280 281 275 256 220 231 219 234 235 226 231 234 166 160 162 165 171 170 166 141 151 132 157 161 166 190 181 194 131 119 122
220 198 219 240 239 224 246 208 226 210 232 264 253 294 261 331 265 241 213 226 209 216 226 174 153 139 123 123 121 111 124 150 144 159 166 163 146 137 135 151 174 150 140 217
216 225 205 230 233 233 234 270 337 350 124 249 242 195 280 230 222 202 19 206 173 132 137 109 104 119 120 133 145 140 156 179 171 175 176 168 163 169 161 166 181 173 151 212
303 254 233 216 220 227 211 141 115 227 191 234 202 180 226 289 269 173 208 152 126 134 97 95 90 99 121 130 125 112 97 116 20 67 62 109 144 141 172 155 253 277 249 220
196 240 198 192 195 182 205 184 178 161 199 232 197 226 236 284 265 128 62 102 99 104 102 97 95 94 95 95 99 117 109 99 95 80 84 94 89 115 157 203 223 249 243 264
226 236 215 191 209 187 224 182 200 194 19 132 214 251 188 4 5 102 107 92 71 86 101 95 87 87 91 87 75 96 126 132 142 73 84 107 147 221 251 268 250 260 251 240
215 212 218 195 187 201 207 155 204 195 205 182 261 88 40 346 329 348 92 49 131 105 97 96 94 92 85 84 84 74 71 69 81 69 50 54 55 58 56 52 24 346 281 247
133 148 185 40 210 187 185 185 122 151 170 175 163 354 272 262 350 37 60 71 105 108 106 98 99 94 92 82 81 85 78 75 65 63 60 64 64 64 60 47 36 46 9 343
176 174 208 211 258 270 198 183 178 166 218 212 147 179 127 108 50 50 26 86 82 90 77 84 83 88 88 87 78 77 86 84 80 78 70 63 62 59 52 46 43 39 35 18
155 215 133 122 37 279 195 191 163 151 128 186 124 193 211 111 56 45 29 38 57 91 90 81 84 79 76 80 83 80 69 86 80 78 75 56 46 53 43 36 38 43 42 31
149 216 193 187 178 172 196 191 171 159 134 178 171 142 194 173 94 57 62 38 45 69 91 92 81 80 80 82 75 73 69 65 74 74 74 66 54 56 53 43 36 37 35 39
220 215 167 105 113 62 207 188 151 168 171 159 173 162 181 171 139 122 102 115 98 84 92 96 90 89 90 98 82 73 66 61 66 74 74 74 68 60 57 49 41 34 34 22
56 276 151 168 329 102 21 304 143 176 115 84 129 67 128 137 116 135 185 119 110 108 107 108 112 109 103 90 97 100 96 88 85 83 82 81 77 69 60 50 37 32 25 22
218 234 134 174 160 129 215 235 194 147 177 136 148 166 146 149 151 163 156 146 122 132 129 147 121 119 121 122 131 118 104 102 96 101 103 95 86 77 65 66 58 38 29 20
242 130 88 119 111 213 275 200 190 120 64 97 102 138 142 146 147 161 159 157 155 162 162 133 123 110 121 102 92 96 89 91 96 80 68 66 81 86 73 61 52 36 15 7
256 134 105 131 181 147 81 149 171 156 69 339 120 120 113 117 100 42 100 115 121 123 125 128 125 123 82 74 64 67 50 48 49 49 48 40 48 58 55 46 24 2 348 307
77 70 73 80 85 97 181 82 94 110 21 342 141 136 131 129 118 153 107 110 113 122 96 84 75 74 70 57 77 72 53 56 54 48 51 42 36 51 41 3 329 292 310 290
74 21 88 25 74 67 12 324 79 82 204 117 144 138 138 124 130 153 110 63 67 83 88 83 74 80 75 71 80 79 79 68 71 77 72 40 17 345 351 336 323 310 307 297
115 104 106 290 85 6 17 324 159 152 48 104 96 103 96 108 91 95 93 79 86 93 90 81 86 70 52 62 83 86 69 32 27 17 10 0 348 337 331 321 301 302 302 300
47 154 133 98 195 318 30 92 79 92 94 100 98 84 100 104 100 99 90 87 85 89 81 69 88 88 58 55 70 77 38 17 8 0 342 327 320 309 305 304 303 310 309 292
80 29 90 87 23 40 56 63 67 75 83 81 83 95 101 104 102 102 107 86 69 62 72 79 85 81 65 47 52 57 16 356 338 321 315 314 328 326 318 302 292 288 287 302
312 29 99 81 102 79 55 76 95 82 79 79 66 72 89 96 73 82 71 68 71 69 55 58 83 86 78 63 74 0 337 337 335 323 316 337 335 330 320 293 293 301 291 284
351 153 129 159 103 102 108 73 102 88 85 86 96 77 57 87 100 98 95 99 104 101 102 82 77 84 61 12 325 320 328 341 331 333 325 311 307 313 308 302 308 298 308 339